Regional Weather Roundup
Issued by NWS

Home | Current Version | Previous Version | Text Only | Print | Product List | Glossary On
Versions: 1 2 3 4 5 6 7 8 9 10 11 12 13 14 15 16 17 18 19 20 21 22 23 24 25 26 27 28 29 30 31 32 33 34 35 36 37 38 39 40 41 42 43 44 45 46 47 48 49 50
000
ASUS42 KFFC 201510
RWRGA
WEATHER ROUNDUP FOR GEORGIA
NATIONAL WEATHER SERVICE PEACHTREE CITY GA
1100 AM EDT SUN AUG 20 2017

NOTE: "FAIR" INDICATES FEW OR NO CLOUDS BELOW 12,000 FEET WITH NO
SIGNIFICANT WEATHER AND/OR OBSTRUCTIONS TO VISIBILITY.

* = USE WITH CAUTION. THE STATIONS MARKED WITH AN ASTERISK MAY NOT
REPORT WEATHER SUCH AS PRECIPITATION, FOG, OR THUNDER AND ARE NOT
QUALITY CONTROLLED BY NWS.

THE REMARK "TC" DENOTES TEMPERATURE READING IN DEGREES CELSIUS.

GAZ001>058-201600-
NORTH GEORGIA

CITY           SKY/WX    TMP DP  RH WIND       PRES   REMARKS
ATLANTA        MOSUNNY   86  66  51 S5        30.12S
ATHENS         SUNNY     86  72  62 NE5       30.12R HX  92
CHAMBLEE       SUNNY     85  67  54 CALM      30.12S
PEACHTREE CITY SUNNY     86  69  56 CALM      30.12S HX  90
ROME           SUNNY     84  71  65 CALM      30.12R
WEST ATLANTA   SUNNY     86  71  60 N3        30.12R HX  91
GAINESVILLE    SUNNY     83  69  62 CALM      30.16S
CARTERSVILLE   SUNNY     84  71  65 CALM      30.13R


CITY           SKY/WX    TMP DP  RH WIND       PRES   REMARKS
LAWRENCEVILLE* SUNNY     84  72  65 CALM      30.14S
MARIETTA       MOSUNNY   85  66  52 SW1       30.13R
KENNESAW*        N/A    N/A N/A N/A MISG        N/A
CANTON*        SUNNY     82  68  61 CALM      30.16R
$$

GAZ059>098-102>109-201600-
CENTRAL GEORGIA

CITY           SKY/WX    TMP DP  RH WIND       PRES   REMARKS
AUGUSTA-BUSH   SUNNY     90  74  59 CALM      30.07S HX  99
AUGUSTA-DANIEL SUNNY     91  68  46 CALM      30.09S HX  95
COLUMBUS       SUNNY     88  70  55 CALM      30.09R HX  93
MACON          SUNNY     87  69  54 NE3       30.09S HX  91


CITY           SKY/WX    TMP DP  RH WIND       PRES   REMARKS
LAGRANGE*      SUNNY     89  70  54 NE3       30.11S HX  94
SYLVANIA*      SUNNY     88  79  74 CALM      30.08S HX 102
MILLEDGEVILLE* SUNNY     86  72  62 NW5       30.10R HX  92
$$

GAZ099>101-110>166-201600-
SOUTH GEORGIA

CITY           SKY/WX    TMP DP  RH WIND       PRES   REMARKS
SAVANNAH       MOSUNNY   89  75  63 SE7       30.07R HX  99
VALDOSTA       SUNNY     88  73  61 VRB5      30.06S HX  95
ALMA           SUNNY     89  72  56 CALM      30.06S HX  96
ST SIMONS      SUNNY     87  77  72 SE6       30.06R HX  99
FT STEWART     SUNNY     88  75  66 E3        30.05R HX  97
ALBANY         SUNNY     89  71  55 VRB3      30.09S HX  95
HUNTER AFB     SUNNY     88  75  66 CALM      30.05R HX  97
MOODY AFB      MOSUNNY   89  70  53 CALM      30.05S HX  94
BRUNSWICK      SUNNY     88  73  62 SW3       30.07R HX  96


CITY           SKY/WX    TMP DP  RH WIND       PRES   REMARKS
BAINBRIDGE*    SUNNY     91  77  62 E3        30.07R HX 105
MOULTRIE*      SUNNY     88  70  55 CALM      30.08S HX  92
VIDALIA*       SUNNY     90  72  55 NE5       30.07S HX  96
WAYCROSS*      SUNNY     89  71  55 CALM      30.06S HX  95
DOUGLAS*       SUNNY     88  70  55 E3        30.08S HX  92
$$




USA.gov is the U.S. government's official web portal to all federal, state and local government web resources and services.